Previsão horária em Ceará Mirim

Hoje, 31 Julho, Sábado

Tempo Temperatura Precipitação Vento Pressão Humidade
00:00 +23°C° 0 mm 4 m/s 761 mmHg 89%
01:00 +23°C° 0 mm 4 m/s 761 mmHg 91%
02:00 +23°C° 0 mm 4 m/s 761 mmHg 91%
03:00 +22°C° 0 mm 4 m/s 760 mmHg 91%
04:00 +22°C° 0 mm 4 m/s 760 mmHg 91%
05:00 +22°C° 0 mm 5 m/s 760 mmHg 90%
06:00 +23°C° 0 mm 5 m/s 761 mmHg 88%
07:00 +23°C° 0 mm 5 m/s 761 mmHg 87%
08:00 +26°C° 0 mm 6 m/s 761 mmHg 77%
09:00 +28°C° 0 mm 7 m/s 762 mmHg 68%
10:00 +30°C° 0 mm 7 m/s 762 mmHg 59%
11:00 +32°C° 0 mm 8 m/s 762 mmHg 53%
12:00 +33°C° 0 mm 8 m/s 761 mmHg 48%
13:00 +34°C° 0 mm 8 m/s 760 mmHg 42%
14:00 +34°C° 0 mm 8 m/s 760 mmHg 43%
15:00 +34°C° 0 mm 8 m/s 760 mmHg 43%
16:00 +33°C° 0 mm 8 m/s 759 mmHg 44%
17:00 +32°C° 0 mm 7 m/s 760 mmHg 53%
18:00 +29°C° 0 mm 7 m/s 760 mmHg 62%
19:00 +27°C° 0 mm 7 m/s 761 mmHg 72%
20:00 +27°C° 0 mm 6 m/s 761 mmHg 74%
21:00 +26°C° 0 mm 6 m/s 762 mmHg 77%
22:00 +26°C° 0 mm 6 m/s 762 mmHg 79%
23:00 +24°C° 0 mm 6 m/s 762 mmHg 81%

Amanhã, 1 Agosto, Domingo

Tempo Temperatura Precipitação Vento Pressão Humidade
00:00 +24°C° 0 mm 6 m/s 761 mmHg 83%
01:00 +24°C° 0 mm 6 m/s 761 mmHg 85%
02:00 +24°C° 0 mm 6 m/s 761 mmHg 85%
03:00 +23°C° 0 mm 5 m/s 761 mmHg 86%
04:00 +23°C° 0 mm 5 m/s 760 mmHg 86%
05:00 +23°C° 0.1 mm 5 m/s 761 mmHg 87%
06:00 +23°C° 0.1 mm 5 m/s 761 mmHg 87%
07:00 +23°C° 0.1 mm 5 m/s 761 mmHg 87%
08:00 +26°C° 0.1 mm 6 m/s 762 mmHg 79%
09:00 +28°C° 0.1 mm 6 m/s 762 mmHg 71%
10:00 +29°C° 0.1 mm 7 m/s 762 mmHg 64%
11:00 +32°C° 0.1 mm 8 m/s 762 mmHg 58%
12:00 +33°C° 0.1 mm 8 m/s 761 mmHg 53%
13:00 +34°C° 0.1 mm 8 m/s 761 mmHg 48%
14:00 +33°C° 0 mm 8 m/s 760 mmHg 50%
15:00 +33°C° 0 mm 8 m/s 760 mmHg 52%
16:00 +32°C° 0 mm 8 m/s 760 mmHg 54%
17:00 +30°C° 0.1 mm 7 m/s 760 mmHg 63%
18:00 +28°C° 0.1 mm 6 m/s 761 mmHg 71%
19:00 +26°C° 0.1 mm 5 m/s 761 mmHg 79%
20:00 +26°C° 0.1 mm 5 m/s 762 mmHg 82%
21:00 +25°C° 0.1 mm 5 m/s 762 mmHg 85%
22:00 +25°C° 0.1 mm 5 m/s 762 mmHg 88%
23:00 +23°C° 0.1 mm 5 m/s 762 mmHg 88%

Depois de amanhã, 2 Agosto, Segunda-feira

Tempo Temperatura Precipitação Vento Pressão Humidade
00:00 +23°C° 0.1 mm 5 m/s 762 mmHg 88%
01:00 +23°C° 0.1 mm 6 m/s 762 mmHg 88%
02:00 +23°C° 0 mm 5 m/s 761 mmHg 88%
03:00 +22°C° 0 mm 5 m/s 761 mmHg 88%
04:00 +22°C° 0 mm 5 m/s 761 mmHg 88%
05:00 +22°C° 0 mm 5 m/s 761 mmHg 88%
06:00 +22°C° 0 mm 5 m/s 761 mmHg 88%
07:00 +22°C° 0 mm 5 m/s 761 mmHg 88%
08:00 +25°C° 0 mm 5 m/s 762 mmHg 79%
09:00 +27°C° 0 mm 6 m/s 762 mmHg 71%
10:00 +29°C° 0 mm 7 m/s 762 mmHg 62%
11:00 +30°C° 0.1 mm 7 m/s 761 mmHg 60%
12:00 +32°C° 0.1 mm 7 m/s 761 mmHg 58%
13:00 +32°C° 0.1 mm 7 m/s 761 mmHg 57%
14:00 +32°C° 0 mm 7 m/s 760 mmHg 57%
15:00 +32°C° 0 mm 7 m/s 760 mmHg 57%
16:00 +32°C° 0 mm 7 m/s 759 mmHg 57%
17:00 +29°C° 0 mm 6 m/s 759 mmHg 64%
18:00 +28°C° 0 mm 6 m/s 760 mmHg 71%
19:00 +27°C° 0 mm 5 m/s 760 mmHg 78%
20:00 +26°C° 0.1 mm 5 m/s 761 mmHg 81%
21:00 +25°C° 0.1 mm 4 m/s 761 mmHg 85%
22:00 +25°C° 0.1 mm 4 m/s 761 mmHg 88%
23:00 +23°C° 0.1 mm 4 m/s 761 mmHg 90%

3 Agosto, Terça-feira

Tempo Temperatura Precipitação Vento Pressão Humidade
00:00 +23°C° 0.1 mm 4 m/s 761 mmHg 91%
01:00 +23°C° 0.1 mm 4 m/s 761 mmHg 92%
02:00 +23°C° 0.1 mm 4 m/s 760 mmHg 93%
03:00 +22°C° 0.1 mm 4 m/s 760 mmHg 93%
04:00 +22°C° 0.1 mm 4 m/s 760 mmHg 93%
05:00 +22°C° 0 mm 4 m/s 760 mmHg 93%
06:00 +22°C° 0 mm 4 m/s 760 mmHg 92%
07:00 +22°C° 0 mm 4 m/s 760 mmHg 92%
08:00 +25°C° 0 mm 5 m/s 761 mmHg 81%
09:00 +28°C° 0 mm 6 m/s 761 mmHg 71%
10:00 +30°C° 0 mm 6 m/s 761 mmHg 60%
11:00 +32°C° 0 mm 7 m/s 761 mmHg 57%
12:00 +32°C° 0 mm 7 m/s 760 mmHg 54%
13:00 +33°C° 0 mm 7 m/s 760 mmHg 51%
14:00 +32°C° 0 mm 7 m/s 759 mmHg 53%
15:00 +32°C° 0 mm 7 m/s 759 mmHg 55%
16:00 +30°C° 0 mm 6 m/s 759 mmHg 56%
17:00 +29°C° 0 mm 6 m/s 759 mmHg 62%
18:00 +28°C° 0 mm 6 m/s 760 mmHg 67%
19:00 +27°C° 0 mm 5 m/s 760 mmHg 72%
20:00 +26°C° 0 mm 5 m/s 760 mmHg 77%
21:00 +26°C° 0 mm 4 m/s 761 mmHg 81%
22:00 +25°C° 0 mm 4 m/s 761 mmHg 85%
23:00 +25°C° 0 mm 4 m/s 761 mmHg 86%

4 Agosto, Quarta-feira

Tempo Temperatura Precipitação Vento Pressão Humidade
00:00 +23°C° 0 mm 4 m/s 761 mmHg 88%
01:00 +23°C° 0 mm 4 m/s 760 mmHg 89%
02:00 +23°C° 0 mm 4 m/s 760 mmHg 90%
03:00 +22°C° 0 mm 4 m/s 760 mmHg 90%
04:00 +22°C° 0 mm 4 m/s 760 mmHg 91%
05:00 +22°C° 0 mm 4 m/s 760 mmHg 90%
06:00 +22°C° 0 mm 4 m/s 760 mmHg 89%
07:00 +22°C° 0 mm 4 m/s 760 mmHg 89%
08:00 +26°C° 0 mm 5 m/s 761 mmHg 78%
09:00 +28°C° 0 mm 6 m/s 761 mmHg 67%
10:00 +30°C° 0 mm 6 m/s 761 mmHg 57%
11:00 +33°C° 0 mm 7 m/s 761 mmHg 53%
12:00 +34°C° 0 mm 7 m/s 760 mmHg 50%
13:00 +35°C° 0 mm 7 m/s 760 mmHg 46%
14:00 +34°C° 0 mm 7 m/s 759 mmHg 48%
15:00 +33°C° 0 mm 7 m/s 759 mmHg 50%
16:00 +33°C° 0 mm 7 m/s 759 mmHg 53%
17:00 +30°C° 0 mm 7 m/s 759 mmHg 59%
18:00 +29°C° 0 mm 6 m/s 760 mmHg 66%
19:00 +27°C° 0 mm 6 m/s 760 mmHg 73%
20:00 +27°C° 0 mm 6 m/s 761 mmHg 76%
21:00 +26°C° 0 mm 6 m/s 761 mmHg 79%
22:00 +26°C° 0 mm 5 m/s 761 mmHg 81%
23:00 +26°C° 0 mm 5 m/s 761 mmHg 83%

5 Agosto, Quinta-feira

Tempo Temperatura Precipitação Vento Pressão Humidade
00:00 +25°C° 0 mm 5 m/s 761 mmHg 85%
01:00 +25°C° 0 mm 5 m/s 761 mmHg 87%
02:00 +23°C° 0 mm 5 m/s 761 mmHg 88%
03:00 +23°C° 0 mm 5 m/s 761 mmHg 89%
04:00 +23°C° 0 mm 5 m/s 760 mmHg 90%
05:00 +23°C° 0 mm 5 m/s 761 mmHg 90%
06:00 +23°C° 0 mm 5 m/s 761 mmHg 90%
07:00 +22°C° 0 mm 4 m/s 761 mmHg 90%
08:00 +26°C° 0 mm 5 m/s 761 mmHg 79%
09:00 +28°C° 0 mm 6 m/s 762 mmHg 68%
10:00 +30°C° 0 mm 7 m/s 762 mmHg 57%
11:00 +33°C° 0 mm 7 m/s 761 mmHg 53%
12:00 +34°C° 0 mm 7 m/s 761 mmHg 49%
13:00 +35°C° 0 mm 8 m/s 760 mmHg 45%
14:00 +34°C° 0 mm 8 m/s 760 mmHg 46%
15:00 +34°C° 0 mm 8 m/s 760 mmHg 47%
16:00 +33°C° 0 mm 8 m/s 759 mmHg 48%
17:00 +32°C° 0 mm 7 m/s 760 mmHg 57%
18:00 +29°C° 0 mm 7 m/s 760 mmHg 66%
19:00 +27°C° 0 mm 6 m/s 761 mmHg 74%
20:00 +27°C° 0 mm 6 m/s 761 mmHg 77%
21:00 +26°C° 0 mm 5 m/s 762 mmHg 79%
22:00 +26°C° 0 mm 5 m/s 762 mmHg 82%
23:00 +25°C° 0 mm 5 m/s 762 mmHg 84%
Mostrar mais

Necessitamos do seu Consentimento

A Meteoprog e os seus Fornecedores de Serviços podem armazenar e aceder a dados pessoais como cookies, identificadores do dispositivo ou outras tecnologias semelhantes existentes no seu dispositivo e processar estes dados para personalizar conteúdos e anúncios, assim como funcionalidades nas redes sociais e análise de tráfego.

  • Armazenar e/ou aceder a informações no seu dispositivo

    Os cookies, identificadores do dispositivo ou outras informações podem ser armazenados ou acedidos no seu dispositivo, para os fins acima indicados.

  • Anúncios e conteúdos personalizados, medição de anúncios e conteúdos, dados sobre o público-alvo e desenvolvimento de produtos

    Os anúncios e os conteúdos podem ser personalizados com base num perfil. Podem ser adicionados dados adicionais para uma maior personalização dos anúncios e dos conteúdos. A eficácia dos anúncios e dos conteúdos pode ser medida. Podem ser obtidas informações sobre o público que visualizou os anúncios e os conteúdos. Estes dados podem ser usados para desenvolver ou melhorar sistemas, softwares ou a experiência do utilizador.

Ao clicar em "Eu concordo”, permitirá o uso de cookies, identificadores do dispositivo e web beacons mencionados ou outras tecnologias semelhantes. As configurações do navegador do seu dispositivo podem ser alteradas.

Para certos fins, podem ser invocados interesses legítimos ao invés de consentimento. Pode ler mais informação sobre este assunto na nossa Política de Privacidade e Cookies.